Regional Weather Roundup
Issued by NWS

Home | Current Version | Previous Version | Graphics & Text | Print | Product List | Glossary On
Versions: 1 2 3 4 5 6 7 8 9 10 11 12 13 14 15 16 17 18 19 20 21 22 23 24 25 26 27 28 29 30 31 32 33 34 35 36 37 38 39 40 41 42 43 44 45 46 47 48 49 50
000
ASUS44 KMEG 251410
RWRTN
TENNESSEE HOURLY STATE WEATHER ROUNDUP
NATIONAL WEATHER SERVICE MEMPHIS TN
900 AM CDT FRI JUL 25 2014

TNZ002-004-019-021-049-052-054-088>092-251500-
WEST TENNESSEE

CITY           SKY/WX    TMP DP  RH WIND       PRES   REMARKS
MEMPHIS INTL   MOSUNNY   74  61  63 SE3       30.07R
NWS MEMPHIS      N/A     73 N/A N/A MISG        N/A
JACKSON        MOSUNNY   69  62  78 CALM      30.08R
DYERSBURG      MOSUNNY   70  55  60 SE3       30.09S
UNION CITY     SUNNY     66  61  82 CALM      30.07S
PARIS          MOSUNNY   68  60  75 SE5       30.09S
LEXINGTON      SUNNY     70  63  78 N3        30.07R
SAVANNAH       MOSUNNY   71  70  97 CALM      30.07R
$$

TNZ008-025-027-028-033-062-065-066-251500-
NORTH MIDDLE TENNESSEE

CITY           SKY/WX    TMP DP  RH WIND       PRES   REMARKS
NASHVILLE      MOSUNNY   74  62  66 E3        30.10R
DICKSON        SUNNY     72  61  68 CALM      30.09R
PORTLAND       MOSUNNY   68  61  77 CALM      30.09
CLARKSVILLE    MOSUNNY   70  59  68 CALM      30.09S
LEBANON        SUNNY     71  61  70 CALM      30.07R
SMYRNA         SUNNY     73  65  76 CALM      30.09R
MURFREESBORO   SUNNY     71  61  70 CALM      30.07S
COOKEVILLE     SUNNY     70  63  78 SE28G89   30.08F
GALLATIN       SUNNY     71  63  76 CALM      30.10R
CROSSVILLE     PTSUNNY   65  62  90 S6        30.12S
$$

TNZ061-075-076-078-094-096-097-251500-
SOUTH MIDDLE TENNESSEE

CITY           SKY/WX    TMP DP  RH WIND       PRES   REMARKS
LEWISBURG      SUNNY     71  62  73 CALM      30.07F
FAYETTEVILLE   SUNNY     72  63  73 SE9       30.07F
TULLAHOMA      SUNNY     72  61  68 SE5       30.10S
WINCHESTER     SUNNY     73  64  73 SE3       30.07F
MCMINNVILLE    SUNNY     70  70 100 CALM      30.09S
COLUMBIA       SUNNY     73  64  73 CALM      30.07R
SHELBYVILLE    SUNNY     73  64  73 CALM      30.09R
$$

TNZ017-018-042-046-047-251500-
NORTHEAST TENNESSEE

CITY           SKY/WX    TMP DP  RH WIND       PRES   REMARKS
TRI CITIES     MOSUNNY   67  62  84 SE3       30.11R
ELIZABETHTON   MOSUNNY   70  63  78 CALM      30.10R
$$

TNZ012-013-036-069-073-074-251500-
CENTRAL EAST TENNESSEE

CITY           SKY/WX    TMP DP  RH WIND       PRES   REMARKS
KNOXVILLE      MOSUNNY   69  63  81 CALM      30.07F
OAK RIDGE      MOSUNNY   71  61  70 CALM      30.10S
GATLINBURG     CLOUDY    70  63  78 CALM      30.08S
MORRISTOWN     SUNNY     70  64  83 CALM      30.11R
$$

TNZ083-085-099-251500-
SOUTHEAST TENNESSEE

CITY           SKY/WX    TMP DP  RH WIND       PRES   REMARKS
CHATTANOOGA    MOSUNNY   73  63  70 CALM      30.08F
$$

SKY/WX REPORTED AS FAIR MEANS FEW OR NO CLOUDS BELOW
12 THOUSAND FEET.




USA.gov is the U.S. government's official web portal to all federal, state and local government web resources and services.